• In Uzbekistan
  • List of Countries
  • For 7 days
  • Water Temperature
  • Weather Map
  • Weather Widgets
  • user-avatar
    Login

    Hourly Weather Quito

    Today, 20 November, Wednesday

    Time Temperature Precipitation Wind Pressure Humidity
    00:00 +18°C° 0 mm 2 mps 621 mmHg 84%
    01:00 +18°C° 0 mm 2 mps 620 mmHg 85%
    02:00 +18°C° 0 mm 1 mps 620 mmHg 87%
    03:00 +18°C° 0 mm 1 mps 620 mmHg 88%
    04:00 +18°C° 0 mm 1 mps 620 mmHg 90%
    05:00 +19°C° 0 mm 1 mps 621 mmHg 87%
    06:00 +18°C° 0 mm 0 mps 622 mmHg 83%
    07:00 +19°C° 0 mm 0 mps 623 mmHg 78%
    08:00 +21°C° 0.2 mm 0 mps 623 mmHg 70%
    09:00 +25°C° 0.2 mm 1 mps 624 mmHg 62%
    10:00 +28°C° 0.2 mm 1 mps 624 mmHg 53%
    11:00 +27°C° 1.1 mm 1 mps 623 mmHg 57%
    12:00 +27°C° 1.1 mm 2 mps 623 mmHg 60%
    13:00 +26°C° 1.1 mm 2 mps 622 mmHg 63%
    14:00 +26°C° 1.7 mm 2 mps 621 mmHg 65%
    15:00 +25°C° 1.7 mm 2 mps 621 mmHg 67%
    16:00 +25°C° 1.7 mm 1 mps 620 mmHg 69%
    17:00 +24°C° 1.6 mm 1 mps 620 mmHg 74%
    18:00 +22°C° 1.6 mm 1 mps 620 mmHg 80%
    19:00 +21°C° 1.6 mm 1 mps 620 mmHg 85%
    20:00 +20°C° 0.8 mm 1 mps 621 mmHg 87%
    21:00 +20°C° 0.8 mm 1 mps 621 mmHg 90%
    22:00 +19°C° 0.8 mm 1 mps 621 mmHg 92%
    23:00 +19°C° 1 mm 1 mps 621 mmHg 91%

    Tomorrow, 21 November, Thursday

    Time Temperature Precipitation Wind Pressure Humidity
    00:00 +19°C° 1 mm 1 mps 620 mmHg 91%
    01:00 +19°C° 1 mm 1 mps 620 mmHg 90%
    02:00 +19°C° 0.4 mm 1 mps 620 mmHg 91%
    03:00 +17°C° 0.4 mm 0 mps 620 mmHg 91%
    04:00 +17°C° 0.4 mm 0 mps 620 mmHg 91%
    05:00 +17°C° 0.8 mm 0 mps 621 mmHg 91%
    06:00 +17°C° 0.8 mm 0 mps 621 mmHg 91%
    07:00 +18°C° 0.8 mm 0 mps 622 mmHg 91%
    08:00 +20°C° 1.1 mm 1 mps 622 mmHg 88%
    09:00 +21°C° 1.1 mm 1 mps 623 mmHg 85%
    10:00 +22°C° 1.1 mm 1 mps 623 mmHg 82%
    11:00 +23°C° 1 mm 1 mps 622 mmHg 80%
    12:00 +23°C° 1 mm 1 mps 622 mmHg 79%
    13:00 +24°C° 1 mm 1 mps 622 mmHg 77%
    14:00 +24°C° 1.3 mm 1 mps 621 mmHg 76%
    15:00 +24°C° 1.3 mm 1 mps 621 mmHg 75%
    16:00 +24°C° 1.3 mm 1 mps 621 mmHg 74%
    17:00 +22°C° 0.7 mm 1 mps 621 mmHg 79%
    18:00 +21°C° 0.7 mm 1 mps 621 mmHg 84%
    19:00 +20°C° 0.7 mm 1 mps 621 mmHg 89%
    20:00 +18°C° 0.1 mm 2 mps 621 mmHg 90%
    21:00 +18°C° 0.1 mm 2 mps 621 mmHg 90%
    22:00 +18°C° 0.1 mm 2 mps 621 mmHg 91%
    23:00 +18°C° 0 mm 2 mps 621 mmHg 91%

    Day after tomorrow, 22 November, Friday

    Time Temperature Precipitation Wind Pressure Humidity
    00:00 +18°C° 0 mm 2 mps 621 mmHg 90%
    01:00 +17°C° 0 mm 2 mps 621 mmHg 90%
    02:00 +19°C° 0 mm 1 mps 620 mmHg 89%
    03:00 +19°C° 0 mm 1 mps 620 mmHg 89%
    04:00 +19°C° 0 mm 1 mps 620 mmHg 88%
    05:00 +19°C° 0 mm 1 mps 621 mmHg 87%
    06:00 +20°C° 0 mm 1 mps 622 mmHg 86%
    07:00 +20°C° 0 mm 1 mps 622 mmHg 85%
    08:00 +21°C° 0.5 mm 1 mps 622 mmHg 83%
    09:00 +21°C° 0.5 mm 1 mps 622 mmHg 82%
    10:00 +22°C° 0.5 mm 1 mps 623 mmHg 80%
    11:00 +23°C° 0.8 mm 1 mps 622 mmHg 73%
    12:00 +25°C° 0.8 mm 1 mps 622 mmHg 67%
    13:00 +26°C° 0.8 mm 1 mps 622 mmHg 61%
    14:00 +26°C° 0.4 mm 1 mps 622 mmHg 60%
    15:00 +26°C° 0.4 mm 1 mps 621 mmHg 59%
    16:00 +26°C° 0.4 mm 1 mps 621 mmHg 58%
    17:00 +24°C° 0.1 mm 1 mps 621 mmHg 67%
    18:00 +21°C° 0.1 mm 2 mps 620 mmHg 76%
    19:00 +19°C° 0.1 mm 2 mps 620 mmHg 85%
    20:00 +18°C° 0 mm 3 mps 620 mmHg 85%
    21:00 +18°C° 0 mm 3 mps 620 mmHg 85%
    22:00 +18°C° 0 mm 3 mps 621 mmHg 86%
    23:00 +17°C° 0 mm 3 mps 621 mmHg 86%

    23 November, Saturday

    Time Temperature Precipitation Wind Pressure Humidity
    00:00 +17°C° 0 mm 3 mps 620 mmHg 87%
    01:00 +17°C° 0 mm 3 mps 620 mmHg 88%
    02:00 +17°C° 0 mm 3 mps 620 mmHg 89%
    03:00 +16°C° 0 mm 3 mps 620 mmHg 91%
    04:00 +16°C° 0 mm 2 mps 620 mmHg 93%
    05:00 +17°C° 0 mm 2 mps 621 mmHg 91%
    06:00 +17°C° 0 mm 2 mps 621 mmHg 90%
    07:00 +18°C° 0 mm 2 mps 622 mmHg 88%
    08:00 +20°C° 0 mm 2 mps 623 mmHg 76%
    09:00 +22°C° 0 mm 3 mps 623 mmHg 64%
    10:00 +25°C° 0 mm 3 mps 624 mmHg 52%
    11:00 +26°C° 0 mm 3 mps 623 mmHg 47%
    12:00 +27°C° 0 mm 3 mps 623 mmHg 43%
    13:00 +28°C° 0 mm 3 mps 623 mmHg 39%
    14:00 +28°C° 0 mm 2 mps 622 mmHg 40%
    15:00 +28°C° 0 mm 2 mps 622 mmHg 41%
    16:00 +28°C° 0 mm 1 mps 621 mmHg 43%
    17:00 +25°C° 0 mm 1 mps 621 mmHg 49%
    18:00 +23°C° 0 mm 2 mps 621 mmHg 55%
    19:00 +20°C° 0 mm 2 mps 620 mmHg 61%
    20:00 +19°C° 0 mm 2 mps 620 mmHg 68%
    21:00 +19°C° 0 mm 2 mps 620 mmHg 74%
    22:00 +18°C° 0 mm 3 mps 621 mmHg 81%
    23:00 +17°C° 0 mm 3 mps 620 mmHg 84%

    24 November, Sunday

    Time Temperature Precipitation Wind Pressure Humidity
    00:00 +17°C° 0 mm 2 mps 620 mmHg 87%
    01:00 +17°C° 0 mm 2 mps 620 mmHg 91%
    02:00 +16°C° 0 mm 1 mps 620 mmHg 92%
    03:00 +16°C° 0 mm 1 mps 620 mmHg 93%
    04:00 +16°C° 0 mm 1 mps 620 mmHg 94%
    05:00 +18°C° 0 mm 1 mps 621 mmHg 90%
    06:00 +19°C° 0 mm 1 mps 621 mmHg 86%
    07:00 +18°C° 0 mm 0 mps 622 mmHg 82%
    08:00 +22°C° 0 mm 1 mps 623 mmHg 70%
    09:00 +24°C° 0 mm 1 mps 623 mmHg 59%
    10:00 +26°C° 0 mm 1 mps 624 mmHg 48%
    11:00 +26°C° 0 mm 2 mps 623 mmHg 48%
    12:00 +26°C° 0 mm 2 mps 623 mmHg 47%
    13:00 +27°C° 0 mm 3 mps 622 mmHg 47%
    14:00 +24°C° 0.4 mm 3 mps 621 mmHg 60%
    15:00 +21°C° 0.4 mm 3 mps 620 mmHg 72%
    16:00 +18°C° 0.4 mm 3 mps 619 mmHg 85%
    17:00 +18°C° 0.1 mm 2 mps 619 mmHg 86%
    18:00 +19°C° 0.1 mm 1 mps 620 mmHg 86%
    19:00 +18°C° 0.1 mm 1 mps 620 mmHg 87%
    20:00 +18°C° 0 mm 1 mps 620 mmHg 86%
    21:00 +18°C° 0 mm 1 mps 621 mmHg 86%
    22:00 +18°C° 0 mm 1 mps 621 mmHg 86%
    23:00 +16°C° 0.1 mm 0 mps 621 mmHg 87%

    25 November, Monday

    Time Temperature Precipitation Wind Pressure Humidity
    00:00 +16°C° 0.1 mm 0 mps 621 mmHg 89%
    01:00 +16°C° 0.1 mm 0 mps 621 mmHg 91%
    02:00 +16°C° 0.6 mm 0 mps 621 mmHg 93%
    03:00 +15°C° 0.6 mm 0 mps 620 mmHg 94%
    04:00 +15°C° 0.6 mm 0 mps 620 mmHg 96%
    05:00 +15°C° 1.9 mm 0 mps 621 mmHg 96%
    06:00 +15°C° 1.9 mm 0 mps 621 mmHg 97%
    07:00 +16°C° 1.9 mm 1 mps 621 mmHg 98%
    08:00 +18°C° 0.7 mm 1 mps 622 mmHg 94%
    09:00 +19°C° 0.7 mm 1 mps 622 mmHg 91%
    10:00 +19°C° 0.7 mm 2 mps 622 mmHg 88%
    11:00 +20°C° 0.4 mm 2 mps 622 mmHg 82%
    12:00 +23°C° 0.4 mm 2 mps 622 mmHg 75%
    13:00 +24°C° 0.4 mm 2 mps 622 mmHg 69%
    14:00 +24°C° 1.5 mm 2 mps 621 mmHg 75%
    15:00 +23°C° 1.5 mm 2 mps 621 mmHg 80%
    16:00 +21°C° 1.5 mm 2 mps 620 mmHg 85%
    17:00 +21°C° 1.3 mm 1 mps 620 mmHg 88%
    18:00 +20°C° 1.3 mm 1 mps 620 mmHg 90%
    19:00 +19°C° 1.3 mm 1 mps 621 mmHg 93%
    20:00 +19°C° 0.3 mm 1 mps 621 mmHg 93%
    21:00 +19°C° 0.3 mm 1 mps 621 mmHg 93%
    22:00 +19°C° 0.3 mm 1 mps 622 mmHg 93%
    23:00 +18°C° 0.1 mm 1 mps 621 mmHg 93%
    Show more